Preview of NWS' New Version of Forecast
This preview is not operational and should not be used for support decisions.

Regional Weather Roundup (RWR)

Issued by National Weather Service (NWS)

                            
000
ASUS46 KSEW 222010
RWRWA 

WASHINGTON REGIONAL WEATHER ROUNDUP
NATIONAL WEATHER SERVICE SEATTLE WA
100 PM PDT FRI MAR 22 2019

NOTE:"FAIR" INDICATES FEW OR NO CLOUDS BELOW 12,000 FEET WITH NO 
SIGNIFICANT WEATHER AND/OR OBSTRUCTIONS TO VISIBILITY.

WAZ507-509-555>559-222100-
SEATTLE, TACOMA, EVERETT, AND VICINITY
  
CITY           SKY/WX    TMP DP  RH WIND       PRES   REMARKS
EVERETT        SUNNY     61  38  42 S13G18    29.89F                  
BOEING FIELD   SUNNY     61  43  51 VRB6      29.88F                  
RENTON         MOSUNNY   65  37  35 SW10G17   29.88F                  
SEATAC AIRPORT MOSUNNY   64  39  39 S5        29.89F                  
JBLM-MCCHORD   NOT AVBL                                               
PUYALLUP       FAIR      66  34  30 SW6       29.88F                  
BREMERTON      MOSUNNY   62  38  40 S14       29.89F                  
JBLM-FT LEWIS  NOT AVBL                                               
TACOMA NARROWS MOSUNNY   60  43  53 S5        29.90S                  
$$
 
WAZ001-503-506-510-514-515-222100-
NORTH INTERIOR
  
CITY           SKY/WX    TMP DP  RH WIND       PRES   REMARKS
BELLINGHAM     MOSUNNY   60  43  53 SW5       29.88F                  
FRIDAY HARBOR  SUNNY     58  42  55 SE6       29.88F                  
EASTSOUND      PTSUNNY   59  41  51 VRB7      29.87F                  
PORT ANGELES   CLOUDY    49  45  86 NE5       29.88F                  
EDIZ HOOK      FAIR      48  45  90 CALM      29.88S                  
PORT TOWNSEND  FAIR      61  45  55 E15       29.84F                  
NAS WHIDBEY    PTSUNNY   66  42  41 SE12G18   29.90F                  
ARLINGTON      CLOUDY    63  42  46 S10G16    29.89F                  
BURLINGTON     CLOUDY    63  46  55 SE9       29.88F                  
$$
 
WAZ020-022-039-040-504-511-512-222100-
SOUTHWEST INTERIOR
  
CITY           SKY/WX    TMP DP  RH WIND       PRES   REMARKS
SHELTON        PTSUNNY   60  42  51 SE6       29.87F                  
OLYMPIA        PTSUNNY   60  42  51 S3        29.89F                  
CHEHALIS       FAIR      61  43  51 S16G25    29.91R                  
KELSO          LGT RAIN  53  47  79 S10       29.96R                  
VANCOUVER      LGT RAIN  51  45  79 CALM      29.97S                  
SCAPPOOSE, OR  LGT RAIN  53  46  77 S8        29.97R                  
PORTLAND, OR   LGT RAIN  52  45  77 S9        29.98R                  
$$
 
WAZ021-516-517-222100-
WASHINGTON COAST
  
CITY           SKY/WX    TMP DP  RH WIND       PRES   REMARKS
FORKS          CLOUDY    59  36  42 S9        29.83F                  
HOQUIAM        LGT RAIN  54  47  77 E10       29.89R                  
ASTORIA, OR    LGT RAIN  51  49  92 E6        29.89R                  
$$
 
WAZ019-023-024-040-567>569-222100-
CASCADE MOUNTAINS AND COLUMBIA GORGE
  
CITY           SKY/WX    TMP DP  RH WIND       PRES   REMARKS
STAMPEDE PASS  NOT AVBL                                               
TROUTDALE, OR  LGT RAIN  54  43  66 S10       29.98R                  
HOOD RIVER, OR PTCLDY    59  39  47 CALM      29.92S                  
THE DALLES, OR SUNNY     63  41  44 CALM      29.90F                  
$$

WAZ026-027-041>044-520-521-222100-
EAST SLOPES
  
CITY           SKY/WX    TMP DP  RH WIND       PRES   REMARKS
OMAK           SUNNY     55  38  52 S9G17     29.90F                  
WENATCHEE      PTSUNNY   52  37  56 SE7       29.88F                  
ELLENSBURG     MOSUNNY   61  39  44 S9        29.88R                  
YAKIMA         SUNNY     58  39  49 S6        29.88F                  
SUNNYSIDE ARPT PTCLDY    58  42  55 W3        29.90                   
YAKIMA TC      NOT AVBL                                               
$$

WAZ028-034-035-222100-
COLUMBIA BASIN
  
CITY           SKY/WX    TMP DP  RH WIND       PRES   REMARKS
EPHRATA        MOSUNNY   57  41  55 VRB6      29.89F                  
MOSES LAKE     SUNNY     57  40  52 SE6       29.89F                  
PASCO          MOSUNNY   63  37  38 SW16      29.91F                  
RICHLAND ARPT  CLEAR     62  42  48 S7        29.90F                  
HERMISTON, OR  MOSUNNY   66  38  35 W10G18    29.90S                  
$$

WAZ036>038-222100-
NORTHEAST WASHINGTON
  
CITY           SKY/WX    TMP DP  RH WIND       PRES   REMARKS
SPOKANE GEIGER MOSUNNY   50  37  61 SW9       29.93S                  
SPOKANE FELTS  SUNNY     55  38  52 S8        29.93F                  
FAIRCHILD AFB  SUNNY     50  41  71 S8        29.92S                  
COEURDALENE,ID SUNNY     52  37  56 W3        29.93F                  
DEER PARK      SUNNY     48  37  65 S3        29.93F                  
$$

WAZ029>033-222100-
SOUTHEAST WASHINGTON
  
CITY           SKY/WX    TMP DP  RH WIND       PRES   REMARKS
PULLMAN        MOSUNNY   52  37  56 S8        29.95S                  
LEWISTON, ID   SUNNY     55  38  52 VRB7      29.94F                  
WALLA WALLA    SUNNY     63  36  36 S8        29.90F                  
PENDLETON, OR  SUNNY     63  34  33 W7        29.89F                  
$$